Location: Les Chemineaux
(47.3024°N, 1.5104°E)
Time: 05:23:32
(UTC+00:00)

Meteor 2-8 Rocket - Pass Details

Date: 19 May 2025
Orbit: 937 x 957 km, 82.5° (Epoch: 13 June)

Event Time Altitude Azimuth Distance (km) Brightness Sun altitude
Rises 23:14:03 0° 351° (N) 3,648 9.0 -22.2°
Reaches altitude 10° 23:16:34 10° 352° (N) 2,699 8.0 -22.3°
Maximum altitude 23:22:46 81° 80° (E) 975 4.4 -22.4°
Enters shadow 23:24:49 45° 161° (SSE) 1,280 4.6 -22.5°
